Location: Nairn
(57.5833°N, 3.8667°W)
Time: 02:14:58
(UTC+00:00)

Cosmos 2227 Rocket - Pass Details

Date: 07 August 2020
Orbit: 841 x 843 km, 71.0° (Epoch: 27 September)

Event Time Altitude Azimuth Distance (km) Brightness Sun altitude
Exits shadow 03:15:33 10° 222° (SW) 2,501 3.9 -7.8°
Reaches altitude 10° 03:15:40 10° 222° (SW) 2,463 3.9 -7.8°
Maximum altitude 03:21:19 77° 309° (NW) 874 2.3 -7.3°
Drops below altitude 10° 03:27:01 10° 36° (NE) 2,475 6.4 -6.8°
Sets 03:29:29 0° 38° (NE) 3,413 7.8 -6.5°
